Time,TemperatureF,DewpointF,PressureIn,WindDirection,WindDirectionDegrees,WindSpeedMPH,WindSpeedGustMPH,Humidity,HourlyPrecipIn,Conditions,Clouds,dailyrainin,SoftwareType,DateUTC
2013-03-07 00:00:00,35.5,29.6,30.11,North,4,0.0,5.0,79,0.00,,,0.38,WUHU216DAVISVP2,2013-03-07 05:00:00,
2013-03-07 00:05:00,35.5,29.6,30.11,North,4,1.0,5.0,79,0.00,,,0.00,WUHU216DAVISVP2,2013-03-07 05:05:00,
2013-03-07 00:10:00,35.5,29.9,30.11,North,4,0.0,5.0,80,0.00,,,0.00,WUHU216DAVISVP2,2013-03-07 05:10:00,
2013-03-07 00:15:00,35.5,30.3,30.11,North,359,1.0,2.0,81,0.00,,,0.00,WUHU216DAVISVP2,2013-03-07 05:15:00,
2013-03-07 00:20:00,35.4,29.9,30.11,North,359,1.0,3.0,80,0.00,,,0.00,WUHU216DAVISVP2,2013-03-07 05:20:00,
2013-03-07 00:25:00,35.3,29.8,30.11,North,359,2.0,3.0,80,0.00,,,0.00,WUHU216DAVISVP2,2013-03-07 05:25:00,
2013-03-07 00:30:00,35.3,29.8,30.11,North,359,1.0,3.0,80,0.00,,,0.00,WUHU216DAVISVP2,2013-03-07 05:30:00,
2013-03-07 00:35:00,35.2,29.7,30.11,North,359,0.0,2.0,80,0.00,,,0.00,WUHU216DAVISVP2,2013-03-07 05:35:00,
2013-03-07 00:40:00,35.2,29.6,30.11,North,354,1.0,2.0,80,0.00,,,0.00,WUHU216DAVISVP2,2013-03-07 05:40:00,
2013-03-07 00:45:00,35.2,30.0,30.11,North,354,2.0,2.0,81,0.00,,,0.00,WUHU216DAVISVP2,2013-03-07 05:45:00,
2013-03-07 00:50:00,35.1,29.9,30.12,North,4,1.0,4.0,81,0.00,,,0.00,WUHU216DAVISVP2,2013-03-07 05:50:00,
2013-03-07 00:55:00,35.1,30.2,30.12,North,4,1.0,4.0,82,0.00,,,0.00,WUHU216DAVISVP2,2013-03-07 05:55:00,
2013-03-07 01:00:00,35.0,30.1,30.12,North,4,0.0,4.0,82,0.00,,,0.00,WUHU216DAVISVP2,2013-03-07 06:00:00,
2013-03-07 01:05:00,34.9,30.0,30.12,North,4,1.0,4.0,82,0.00,,,0.00,WUHU216DAVISVP2,2013-03-07 06:05:00,
2013-03-07 01:10:00,34.9,30.0,30.12,North,4,0.0,4.0,82,0.00,,,0.00,WUHU216DAVISVP2,2013-03-07 06:10:00,
2013-03-07 01:15:00,34.8,29.9,30.13,North,4,2.0,3.0,82,0.00,,,0.00,WUHU216DAVISVP2,2013-03-07 06:15:00,
2013-03-07 01:20:00,34.8,29.9,30.13,North,350,1.0,4.0,82,0.00,,,0.00,WUHU216DAVISVP2,2013-03-07 06:20:00,
2013-03-07 01:25:00,34.8,29.9,30.13,NNW,332,2.0,4.0,82,0.00,,,0.00,WUHU216DAVISVP2,2013-03-07 06:25:00,
2013-03-07 01:30:00,34.8,29.9,30.13,NNW,332,0.0,4.0,82,0.00,,,0.00,WUHU216DAVISVP2,2013-03-07 06:30:00,
2013-03-07 01:35:00,34.8,29.9,30.13,NNW,332,0.0,4.0,82,0.00,,,0.00,WUHU216DAVISVP2,2013-03-07 06:35:00,
2013-03-07 01:40:00,34.8,29.6,30.13,NNW,333,0.0,3.0,81,0.00,,,0.00,WUHU216DAVISVP2,2013-03-07 06:40:00,
2013-03-07 01:45:00,34.8,29.9,30.13,NNW,332,0.0,2.0,82,0.00,,,0.00,WUHU216DAVISVP2,2013-03-07 06:45:00,
2013-03-07 01:50:00,34.8,29.6,30.13,NNW,333,0.0,2.0,81,0.00,,,0.00,WUHU216DAVISVP2,2013-03-07 06:50:00,
2013-03-07 01:55:00,34.8,29.9,30.13,NNW,333,1.0,2.0,82,0.00,,,0.00,WUHU216DAVISVP2,2013-03-07 06:55:00,
2013-03-07 02:00:00,34.8,29.6,30.13,NNW,333,0.0,2.0,81,0.00,,,0.00,WUHU216DAVISVP2,2013-03-07 07:00:00,
2013-03-07 02:05:00,34.8,29.6,30.13,NNW,332,0.0,2.0,81,0.00,,,0.00,WUHU216DAVISVP2,2013-03-07 07:05:00,
2013-03-07 02:10:00,34.8,29.9,30.13,NNW,333,1.0,2.0,82,0.00,,,0.00,WUHU216DAVISVP2,2013-03-07 07:10:00,
2013-03-07 02:15:00,34.8,29.9,30.13,NNW,333,0.0,2.0,82,0.00,,,0.00,WUHU216DAVISVP2,2013-03-07 07:15:00,
2013-03-07 02:20:00,34.7,29.5,30.12,NNW,340,0.0,3.0,81,0.00,,,0.00,WUHU216DAVISVP2,2013-03-07 07:20:00,
2013-03-07 02:25:00,34.8,29.9,30.13,NNW,340,0.0,3.0,82,0.00,,,0.00,WUHU216DAVISVP2,2013-03-07 07:25:00,
2013-03-07 02:30:00,34.7,29.8,30.12,NNW,340,0.0,3.0,82,0.00,,,0.00,WUHU216DAVISVP2,2013-03-07 07:30:00,
2013-03-07 02:35:00,34.6,30.0,30.13,NNW,340,0.0,3.0,83,0.00,,,0.00,WUHU216DAVISVP2,2013-03-07 07:35:00,
2013-03-07 02:40:00,34.5,29.9,30.12,NNW,340,0.0,1.0,83,0.00,,,0.00,WUHU216DAVISVP2,2013-03-07 07:40:00,
2013-03-07 02:45:00,34.4,29.8,30.12,NNW,340,0.0,1.0,83,0.00,,,0.00,WUHU216DAVISVP2,2013-03-07 07:45:00,
2013-03-07 02:50:00,34.4,29.8,30.12,NNW,340,0.0,1.0,83,0.00,,,0.00,WUHU216DAVISVP2,2013-03-07 07:50:00,
2013-03-07 02:55:00,34.3,30.0,30.12,NNW,340,0.0,1.0,84,0.00,,,0.00,WUHU216DAVISVP2,2013-03-07 07:55:00,
2013-03-07 03:00:00,34.2,29.6,30.12,NNW,340,0.0,1.0,83,0.00,,,0.00,WUHU216DAVISVP2,2013-03-07 08:00:00,
2013-03-07 03:05:00,34.2,29.9,30.12,NNW,340,1.0,2.0,84,0.00,,,0.00,WUHU216DAVISVP2,2013-03-07 08:05:00,
2013-03-07 03:10:00,34.3,29.4,30.12,NW,309,0.0,4.0,82,0.00,,,0.00,WUHU216DAVISVP2,2013-03-07 08:10:00,
2013-03-07 03:15:00,34.4,29.8,30.12,West,270,2.0,4.0,83,0.00,,,0.00,WUHU216DAVISVP2,2013-03-07 08:15:00,
2013-03-07 03:20:00,34.5,29.9,30.12,West,270,1.0,4.0,83,0.00,,,0.00,WUHU216DAVISVP2,2013-03-07 08:20:00,
2013-03-07 03:25:00,34.5,29.9,30.12,NW,316,0.0,4.0,83,0.00,,,0.00,WUHU216DAVISVP2,2013-03-07 08:25:00,
2013-03-07 03:30:00,34.5,29.9,30.12,NW,316,0.0,2.0,83,0.00,,,0.00,WUHU216DAVISVP2,2013-03-07 08:30:00,
2013-03-07 03:36:00,34.5,29.9,30.12,NW,305,0.0,4.0,83,0.00,,,0.00,WUHU216DAVISVP2,2013-03-07 08:36:00,
2013-03-07 03:41:00,34.5,29.6,30.12,NW,305,0.0,4.0,82,0.00,,,0.00,WUHU216DAVISVP2,2013-03-07 08:41:00,
2013-03-07 03:46:00,34.6,29.7,30.12,NW,305,1.0,4.0,82,0.00,,,0.00,WUHU216DAVISVP2,2013-03-07 08:46:00,
2013-03-07 03:51:00,34.7,29.5,30.12,NW,305,0.0,4.0,81,0.00,,,0.00,WUHU216DAVISVP2,2013-03-07 08:51:00,
2013-03-07 03:56:00,34.8,29.6,30.13,NW,305,0.0,3.0,81,0.00,,,0.00,WUHU216DAVISVP2,2013-03-07 08:56:00,
2013-03-07 04:01:00,34.8,29.9,30.13,NW,305,0.0,2.0,82,0.00,,,0.00,WUHU216DAVISVP2,2013-03-07 09:01:00,
2013-03-07 04:06:00,34.7,29.8,30.13,NW,305,0.0,2.0,82,0.00,,,0.00,WUHU216DAVISVP2,2013-03-07 09:06:00,
2013-03-07 04:11:00,34.6,29.7,30.14,NW,305,0.0,1.0,82,0.00,,,0.00,WUHU216DAVISVP2,2013-03-07 09:11:00,
2013-03-07 04:16:00,34.6,29.7,30.14,NW,320,0.0,5.0,82,0.00,,,0.00,WUHU216DAVISVP2,2013-03-07 09:16:00,
2013-03-07 04:21:00,34.6,29.7,30.14,WNW,300,0.0,5.0,82,0.00,,,0.00,WUHU216DAVISVP2,2013-03-07 09:21:00,
2013-03-07 04:26:00,34.6,29.7,30.14,WNW,300,0.0,5.0,82,0.00,,,0.00,WUHU216DAVISVP2,2013-03-07 09:26:00,
2013-03-07 04:31:00,34.6,29.4,30.14,NNW,330,1.0,5.0,81,0.00,,,0.00,WUHU216DAVISVP2,2013-03-07 09:31:00,
2013-03-07 04:36:00,34.8,29.6,30.14,WNW,283,2.0,5.0,81,0.00,,,0.00,WUHU216DAVISVP2,2013-03-07 09:36:00,
2013-03-07 04:41:00,34.9,29.4,30.14,WNW,283,0.0,5.0,80,0.00,,,0.00,WUHU216DAVISVP2,2013-03-07 09:41:00,
2013-03-07 04:46:00,34.9,29.4,30.14,West,280,0.0,5.0,80,0.00,,,0.00,WUHU216DAVISVP2,2013-03-07 09:46:00,
2013-03-07 04:51:00,34.9,29.4,30.14,WNW,289,1.0,4.0,80,0.00,,,0.00,WUHU216DAVISVP2,2013-03-07 09:51:00,
2013-03-07 04:56:00,34.8,29.3,30.14,WNW,289,0.0,3.0,80,0.00,,,0.00,WUHU216DAVISVP2,2013-03-07 09:56:00,
2013-03-07 05:01:00,34.8,29.3,30.14,WNW,291,2.0,3.0,80,0.00,,,0.00,WUHU216DAVISVP2,2013-03-07 10:01:00,
2013-03-07 05:06:00,34.8,29.3,30.14,WNW,291,0.0,3.0,80,0.00,,,0.00,WUHU216DAVISVP2,2013-03-07 10:06:00,
2013-03-07 05:11:00,34.8,29.6,30.14,WNW,291,0.0,3.0,81,0.00,,,0.00,WUHU216DAVISVP2,2013-03-07 10:11:00,
2013-03-07 05:16:00,34.7,29.5,30.14,WNW,295,1.0,3.0,81,0.00,,,0.00,WUHU216DAVISVP2,2013-03-07 10:16:00,
2013-03-07 05:21:00,34.7,29.5,30.14,NNW,335,3.0,4.0,81,0.00,,,0.00,WUHU216DAVISVP2,2013-03-07 10:21:00,
2013-03-07 05:26:00,34.8,29.3,30.14,NNW,339,1.0,5.0,80,0.00,,,0.00,WUHU216DAVISVP2,2013-03-07 10:26:00,
2013-03-07 05:32:00,34.9,29.4,30.14,NNW,335,4.0,9.0,80,0.00,,,0.00,WUHU216DAVISVP2,2013-03-07 10:32:00,
2013-03-07 05:37:00,34.9,29.4,30.14,NNW,345,3.0,9.0,80,0.00,,,0.00,WUHU216DAVISVP2,2013-03-07 10:37:00,
2013-03-07 05:42:00,34.9,29.4,30.15,NW,312,2.0,9.0,80,0.00,,,0.00,WUHU216DAVISVP2,2013-03-07 10:42:00,
2013-03-07 05:47:00,34.9,29.7,30.15,NW,326,2.0,9.0,81,0.00,,,0.00,WUHU216DAVISVP2,2013-03-07 10:47:00,
2013-03-07 05:52:00,34.8,29.6,30.15,NNW,343,2.0,6.0,81,0.00,,,0.00,WUHU216DAVISVP2,2013-03-07 10:52:00,
2013-03-07 05:57:00,34.8,29.6,30.15,NW,321,5.0,9.0,81,0.00,,,0.00,WUHU216DAVISVP2,2013-03-07 10:57:00,
2013-03-07 06:02:00,34.8,29.6,30.16,NW,311,3.0,9.0,81,0.00,,,0.00,WUHU216DAVISVP2,2013-03-07 11:02:00,
2013-03-07 06:07:00,34.8,29.6,30.16,NNW,335,4.0,9.0,81,0.00,,,0.00,WUHU216DAVISVP2,2013-03-07 11:07:00,
2013-03-07 06:12:00,34.7,29.5,30.16,North,354,5.0,9.0,81,0.00,,,0.00,WUHU216DAVISVP2,2013-03-07 11:12:00,
2013-03-07 06:17:00,34.7,29.5,30.16,NNW,336,4.0,7.0,81,0.00,,,0.00,WUHU216DAVISVP2,2013-03-07 11:17:00,
2013-03-07 06:22:00,34.6,29.4,30.16,NW,316,3.0,7.0,81,0.00,,,0.00,WUHU216DAVISVP2,2013-03-07 11:22:00,
2013-03-07 06:27:00,34.6,29.7,30.16,NW,314,2.0,6.0,82,0.00,,,0.00,WUHU216DAVISVP2,2013-03-07 11:27:00,
2013-03-07 06:32:00,34.6,29.7,30.17,NW,320,2.0,7.0,82,0.00,,,0.00,WUHU216DAVISVP2,2013-03-07 11:32:00,
2013-03-07 06:37:00,34.5,29.6,30.16,WNW,301,1.0,7.0,82,0.00,,,0.00,WUHU216DAVISVP2,2013-03-07 11:37:00,
2013-03-07 06:42:00,34.4,29.5,30.17,NNW,334,1.0,7.0,82,0.00,,,0.00,WUHU216DAVISVP2,2013-03-07 11:42:00,
2013-03-07 06:47:00,34.4,29.5,30.17,NNW,338,2.0,7.0,82,0.00,,,0.00,WUHU216DAVISVP2,2013-03-07 11:47:00,
2013-03-07 06:52:00,34.4,29.8,30.17,WSW,247,3.0,4.0,83,0.00,,,0.00,WUHU216DAVISVP2,2013-03-07 11:52:00,
2013-03-07 06:58:00,34.3,29.7,30.17,WSW,239,1.0,6.0,83,0.00,,,0.00,WUHU216DAVISVP2,2013-03-07 11:58:00,
2013-03-07 07:03:00,34.3,29.7,30.17,WNW,302,1.0,6.0,83,0.00,,,0.00,WUHU216DAVISVP2,2013-03-07 12:03:00,
2013-03-07 07:08:00,34.3,29.7,30.17,West,278,3.0,6.0,83,0.00,,,0.00,WUHU216DAVISVP2,2013-03-07 12:08:00,
2013-03-07 07:13:00,34.3,29.7,30.18,NW,324,3.0,6.0,83,0.00,,,0.00,WUHU216DAVISVP2,2013-03-07 12:13:00,
2013-03-07 07:18:00,34.3,29.7,30.18,NW,318,3.0,9.0,83,0.00,,,0.00,WUHU216DAVISVP2,2013-03-07 12:18:00,
2013-03-07 07:23:00,34.3,29.7,30.18,NW,322,0.0,9.0,83,0.00,,,0.00,WUHU216DAVISVP2,2013-03-07 12:23:00,
2013-03-07 07:28:00,34.3,29.7,30.19,NW,322,0.0,9.0,83,0.00,,,0.00,WUHU216DAVISVP2,2013-03-07 12:28:00,
2013-03-07 07:33:00,34.3,29.7,30.19,NW,320,4.0,6.0,83,0.00,,,0.00,WUHU216DAVISVP2,2013-03-07 12:33:00,
2013-03-07 07:38:00,34.3,29.7,30.19,WNW,301,5.0,9.0,83,0.00,,,0.00,WUHU216DAVISVP2,2013-03-07 12:38:00,
2013-03-07 07:43:00,34.3,30.0,30.20,NW,322,6.0,9.0,84,0.00,,,0.00,WUHU216DAVISVP2,2013-03-07 12:43:00,
2013-03-07 07:48:00,34.3,30.0,30.20,NNW,336,7.0,9.0,84,0.00,,,0.00,WUHU216DAVISVP2,2013-03-07 12:48:00,
2013-03-07 07:53:00,34.3,30.0,30.20,NNW,344,4.0,9.0,84,0.00,,,0.00,WUHU216DAVISVP2,2013-03-07 12:53:00,
2013-03-07 07:58:00,34.3,30.0,30.20,WNW,283,1.0,9.0,84,0.00,,,0.00,WUHU216DAVISVP2,2013-03-07 12:58:00,
2013-03-07 08:03:00,34.3,30.0,30.21,WNW,302,2.0,9.0,84,0.00,,,0.00,WUHU216DAVISVP2,2013-03-07 13:03:00,
2013-03-07 08:08:00,34.3,30.0,30.21,NW,326,4.0,9.0,84,0.00,,,0.00,WUHU216DAVISVP2,2013-03-07 13:08:00,
2013-03-07 08:13:00,34.3,30.2,30.21,NNW,340,3.0,9.0,85,0.00,,,0.00,WUHU216DAVISVP2,2013-03-07 13:13:00,
2013-03-07 08:18:00,34.3,30.0,30.21,NW,304,3.0,8.0,84,0.00,,,0.00,WUHU216DAVISVP2,2013-03-07 13:18:00,
2013-03-07 08:23:00,34.3,30.3,30.21,NW,311,3.0,9.0,85,0.00,,,0.00,WUHU216DAVISVP2,2013-03-07 13:23:00,
2013-03-07 08:28:00,34.2,30.2,30.21,WNW,298,3.0,9.0,85,0.00,,,0.00,WUHU216DAVISVP2,2013-03-07 13:28:00,
2013-03-07 08:33:00,34.1,30.3,30.22,WNW,302,0.0,9.0,86,0.00,,,0.00,WUHU216DAVISVP2,2013-03-07 13:33:00,
2013-03-07 08:38:00,34.1,30.3,30.22,NNW,345,8.0,9.0,86,0.00,,,0.00,WUHU216DAVISVP2,2013-03-07 13:38:00,
2013-03-07 08:43:00,34.1,30.6,30.22,West,269,2.0,8.0,87,0.00,,,0.00,WUHU216DAVISVP2,2013-03-07 13:43:00,
2013-03-07 08:48:00,34.0,30.5,30.22,NNW,328,3.0,8.0,87,0.00,,,0.00,WUHU216DAVISVP2,2013-03-07 13:48:00,
2013-03-07 08:53:00,34.0,30.5,30.23,WNW,303,0.0,8.0,87,0.00,,,0.00,WUHU216DAVISVP2,2013-03-07 13:53:00,
2013-03-07 08:58:00,34.1,30.6,30.23,NW,317,0.0,7.0,87,0.00,,,0.00,WUHU216DAVISVP2,2013-03-07 13:58:00,
2013-03-07 09:03:00,34.1,30.6,30.23,West,278,1.0,5.0,87,0.00,,,0.00,WUHU216DAVISVP2,2013-03-07 14:03:00,
2013-03-07 09:08:00,34.1,30.6,30.23,WNW,291,1.0,4.0,87,0.00,,,0.00,WUHU216DAVISVP2,2013-03-07 14:08:00,
2013-03-07 09:13:00,34.1,30.6,30.23,NW,322,1.0,4.0,87,0.00,,,0.00,WUHU216DAVISVP2,2013-03-07 14:13:00,
2013-03-07 09:18:00,34.3,31.1,30.23,NW,321,1.0,4.0,88,0.00,,,0.00,WUHU216DAVISVP2,2013-03-07 14:18:00,
2013-03-07 09:23:00,34.3,31.1,30.23,WNW,296,0.0,4.0,88,0.00,,,0.00,WUHU216DAVISVP2,2013-03-07 14:23:00,
2013-03-07 09:28:00,34.3,30.8,30.23,NW,320,2.0,6.0,87,0.00,,,0.00,WUHU216DAVISVP2,2013-03-07 14:28:00,
2013-03-07 09:33:00,34.3,30.8,30.23,WNW,293,1.0,6.0,87,0.00,,,0.00,WUHU216DAVISVP2,2013-03-07 14:33:00,
2013-03-07 09:38:00,34.4,30.9,30.23,NW,316,2.0,6.0,87,0.00,,,0.00,WUHU216DAVISVP2,2013-03-07 14:38:00,
2013-03-07 09:43:00,34.4,30.9,30.23,NW,317,2.0,6.0,87,0.00,,,0.00,WUHU216DAVISVP2,2013-03-07 14:43:00,
2013-03-07 09:48:00,34.4,30.9,30.22,NW,306,2.0,5.0,87,0.01,,,0.01,WUHU216DAVISVP2,2013-03-07 14:48:00,
2013-03-07 09:53:00,34.5,31.0,30.23,NW,322,1.0,5.0,87,0.01,,,0.01,WUHU216DAVISVP2,2013-03-07 14:53:00,
2013-03-07 09:58:00,34.6,31.1,30.23,NNW,332,3.0,5.0,87,0.01,,,0.01,WUHU216DAVISVP2,2013-03-07 14:58:00,
2013-03-07 10:03:00,34.7,30.9,30.23,NW,308,2.0,7.0,86,0.01,,,0.01,WUHU216DAVISVP2,2013-03-07 15:03:00,
2013-03-07 10:08:00,34.7,30.9,30.23,NNW,343,2.0,7.0,86,0.01,,,0.01,WUHU216DAVISVP2,2013-03-07 15:08:00,
2013-03-07 10:13:00,34.8,31.0,30.23,West,268,2.0,9.0,86,0.01,,,0.01,WUHU216DAVISVP2,2013-03-07 15:13:00,
2013-03-07 10:18:00,34.9,30.8,30.23,NW,316,6.0,9.0,85,0.01,,,0.01,WUHU216DAVISVP2,2013-03-07 15:18:00,
2013-03-07 10:23:00,34.9,30.8,30.23,North,4,4.0,9.0,85,0.01,,,0.01,WUHU216DAVISVP2,2013-03-07 15:23:00,
2013-03-07 10:28:00,35.1,31.0,30.23,North,354,2.0,9.0,85,0.01,,,0.01,WUHU216DAVISVP2,2013-03-07 15:28:00,
2013-03-07 10:33:00,35.3,31.2,30.23,North,349,2.0,9.0,85,0.01,,,0.01,WUHU216DAVISVP2,2013-03-07 15:33:00,
2013-03-07 10:38:00,35.3,30.9,30.23,North,4,6.0,11.0,84,0.01,,,0.01,WUHU216DAVISVP2,2013-03-07 15:38:00,
2013-03-07 10:43:00,35.2,30.8,30.23,NW,324,9.0,11.0,84,0.01,,,0.01,WUHU216DAVISVP2,2013-03-07 15:43:00,
2013-03-07 10:48:00,35.3,30.6,30.23,NNW,334,4.0,11.0,83,0.00,,,0.01,WUHU216DAVISVP2,2013-03-07 15:48:00,
2013-03-07 10:53:00,35.4,30.7,30.24,NW,320,6.0,11.0,83,0.00,,,0.01,WUHU216DAVISVP2,2013-03-07 15:53:00,
2013-03-07 10:58:00,35.5,30.5,30.23,North,4,5.0,10.0,82,0.00,,,0.01,WUHU216DAVISVP2,2013-03-07 15:58:00,
2013-03-07 11:03:00,35.7,30.7,30.24,NNW,331,2.0,9.0,82,0.00,,,0.01,WUHU216DAVISVP2,2013-03-07 16:03:00,
2013-03-07 11:08:00,35.8,30.5,30.24,NNW,346,7.0,11.0,81,0.01,,,0.02,WUHU216DAVISVP2,2013-03-07 16:08:00,
2013-03-07 11:13:00,35.7,30.7,30.24,North,350,4.0,11.0,82,0.01,,,0.02,WUHU216DAVISVP2,2013-03-07 16:13:00,
2013-03-07 11:18:00,35.7,30.4,30.24,NNW,348,3.0,11.0,81,0.01,,,0.02,WUHU216DAVISVP2,2013-03-07 16:18:00,
2013-03-07 11:23:00,35.5,30.5,30.24,NNW,328,7.0,11.0,82,0.01,,,0.02,WUHU216DAVISVP2,2013-03-07 16:23:00,
2013-03-07 11:28:00,35.5,30.5,30.24,North,350,5.0,14.0,82,0.01,,,0.02,WUHU216DAVISVP2,2013-03-07 16:28:00,
2013-03-07 11:33:00,35.6,30.9,30.24,North,359,5.0,14.0,83,0.01,,,0.02,WUHU216DAVISVP2,2013-03-07 16:33:00,
2013-03-07 11:38:00,35.8,30.5,30.24,NNW,346,2.0,14.0,81,0.01,,,0.02,WUHU216DAVISVP2,2013-03-07 16:38:00,
2013-03-07 11:43:00,35.9,30.6,30.24,NW,320,4.0,14.0,81,0.01,,,0.02,WUHU216DAVISVP2,2013-03-07 16:43:00,
2013-03-07 11:48:00,36.0,30.7,30.24,NW,310,8.0,9.0,81,0.01,,,0.02,WUHU216DAVISVP2,2013-03-07 16:48:00,
2013-03-07 11:53:00,36.2,30.9,30.24,WNW,285,5.0,9.0,81,0.01,,,0.02,WUHU216DAVISVP2,2013-03-07 16:53:00,
2013-03-07 11:58:00,36.2,30.9,30.24,WNW,301,5.0,9.0,81,0.01,,,0.02,WUHU216DAVISVP2,2013-03-07 16:58:00,
2013-03-07 12:03:00,36.2,30.6,30.24,NNW,336,5.0,9.0,80,0.01,,,0.02,WUHU216DAVISVP2,2013-03-07 17:03:00,
2013-03-07 12:08:00,36.2,30.9,30.24,NW,324,5.0,9.0,81,0.00,,,0.02,WUHU216DAVISVP2,2013-03-07 17:08:00,
2013-03-07 12:13:00,36.2,30.6,30.24,West,273,5.0,10.0,80,0.00,,,0.02,WUHU216DAVISVP2,2013-03-07 17:13:00,
2013-03-07 12:18:00,36.2,30.9,30.24,NNW,327,2.0,10.0,81,0.00,,,0.02,WUHU216DAVISVP2,2013-03-07 17:18:00,
2013-03-07 12:23:00,36.4,30.5,30.24,NW,312,4.0,10.0,79,0.00,,,0.02,WUHU216DAVISVP2,2013-03-07 17:23:00,
2013-03-07 12:28:00,36.6,30.7,30.24,NW,325,4.0,11.0,79,0.00,,,0.02,WUHU216DAVISVP2,2013-03-07 17:28:00,
2013-03-07 12:33:00,36.9,30.7,30.24,NNE,13,4.0,11.0,78,0.00,,,0.02,WUHU216DAVISVP2,2013-03-07 17:33:00,
2013-03-07 12:38:00,37.2,30.7,30.24,NW,326,4.0,11.0,77,0.00,,,0.02,WUHU216DAVISVP2,2013-03-07 17:38:00,
2013-03-07 12:43:00,37.4,30.9,30.23,North,8,7.0,11.0,77,0.01,,,0.03,WUHU216DAVISVP2,2013-03-07 17:43:00,
2013-03-07 12:48:00,37.5,31.0,30.23,North,11,5.0,10.0,77,0.01,,,0.03,WUHU216DAVISVP2,2013-03-07 17:48:00,
2013-03-07 12:53:00,37.4,30.6,30.23,North,354,3.0,10.0,76,0.01,,,0.03,WUHU216DAVISVP2,2013-03-07 17:53:00,
2013-03-07 12:58:00,37.1,30.0,30.23,NNW,330,4.0,8.0,75,0.01,,,0.03,WUHU216DAVISVP2,2013-03-07 17:58:00,
2013-03-07 13:04:00,37.0,30.1,30.23,NNE,19,1.0,7.0,76,0.01,,,0.03,WUHU216DAVISVP2,2013-03-07 18:04:00,
2013-03-07 13:09:00,37.0,30.1,30.23,NNW,346,1.0,7.0,76,0.01,,,0.03,WUHU216DAVISVP2,2013-03-07 18:09:00,
2013-03-07 13:14:00,37.0,30.1,30.23,NNW,346,4.0,7.0,76,0.01,,,0.03,WUHU216DAVISVP2,2013-03-07 18:14:00,
2013-03-07 13:19:00,37.1,30.2,30.23,North,4,4.0,7.0,76,0.01,,,0.03,WUHU216DAVISVP2,2013-03-07 18:19:00,
2013-03-07 13:24:00,37.1,30.2,30.23,North,359,3.0,7.0,76,0.01,,,0.03,WUHU216DAVISVP2,2013-03-07 18:24:00,
2013-03-07 13:29:00,37.2,30.4,30.23,North,4,3.0,8.0,76,0.01,,,0.03,WUHU216DAVISVP2,2013-03-07 18:29:00,
2013-03-07 13:34:00,37.1,30.3,30.23,NNW,344,10.0,14.0,76,0.01,,,0.03,WUHU216DAVISVP2,2013-03-07 18:34:00,
2013-03-07 13:39:00,37.0,30.5,30.22,NNW,330,2.0,14.0,77,0.01,,,0.03,WUHU216DAVISVP2,2013-03-07 18:39:00,
2013-03-07 13:44:00,37.2,30.3,30.22,NNE,13,3.0,14.0,76,0.00,,,0.03,WUHU216DAVISVP2,2013-03-07 18:44:00,
2013-03-07 13:49:00,37.7,30.2,30.22,NW,310,3.0,10.0,74,0.00,,,0.03,WUHU216DAVISVP2,2013-03-07 18:49:00,
2013-03-07 13:54:00,38.0,30.1,30.22,North,4,2.0,9.0,73,0.00,,,0.03,WUHU216DAVISVP2,2013-03-07 18:54:00,
2013-03-07 13:59:00,38.3,29.8,30.22,NNW,333,3.0,9.0,71,0.00,,,0.03,WUHU216DAVISVP2,2013-03-07 18:59:00,
2013-03-07 14:04:00,38.6,29.7,30.22,WNW,301,4.0,10.0,70,0.00,,,0.03,WUHU216DAVISVP2,2013-03-07 19:04:00,
2013-03-07 14:09:00,38.6,29.4,30.21,North,354,6.0,10.0,69,0.00,,,0.03,WUHU216DAVISVP2,2013-03-07 19:09:00,
2013-03-07 14:14:00,38.6,29.4,30.21,WSW,251,5.0,10.0,69,0.00,,,0.03,WUHU216DAVISVP2,2013-03-07 19:14:00,
2013-03-07 14:19:00,38.5,29.3,30.22,NW,315,3.0,12.0,69,0.00,,,0.03,WUHU216DAVISVP2,2013-03-07 19:19:00,
2013-03-07 14:24:00,38.3,29.4,30.22,NW,326,4.0,14.0,70,0.00,,,0.03,WUHU216DAVISVP2,2013-03-07 19:24:00,
2013-03-07 14:30:00,38.1,29.9,30.22,WNW,297,5.0,14.0,72,0.00,,,0.03,WUHU216DAVISVP2,2013-03-07 19:30:00,
2013-03-07 14:35:00,38.3,30.1,30.22,West,266,3.0,14.0,72,0.00,,,0.03,WUHU216DAVISVP2,2013-03-07 19:35:00,
2013-03-07 14:40:00,38.8,30.3,30.22,North,359,2.0,14.0,71,0.00,,,0.03,WUHU216DAVISVP2,2013-03-07 19:40:00,
2013-03-07 14:45:00,38.8,29.9,30.22,NW,324,3.0,11.0,70,0.00,,,0.03,WUHU216DAVISVP2,2013-03-07 19:45:00,
2013-03-07 14:50:00,38.4,29.9,30.22,NNW,331,7.0,14.0,71,0.00,,,0.03,WUHU216DAVISVP2,2013-03-07 19:50:00,
2013-03-07 14:54:00,37.9,31.1,30.22,WNW,296,4.0,14.0,76,0.00,,,0.03,WUHU216DAVISVP2,2013-03-07 19:54:00,
2013-03-07 15:00:00,37.6,31.1,30.22,NW,309,2.0,14.0,77,0.00,,,0.03,WUHU216DAVISVP2,2013-03-07 20:00:00,
2013-03-07 15:05:00,37.6,30.4,30.22,NW,323,5.0,14.0,75,0.00,,,0.03,WUHU216DAVISVP2,2013-03-07 20:05:00,
2013-03-07 15:10:00,37.6,30.4,30.22,NNW,348,2.0,10.0,75,0.00,,,0.03,WUHU216DAVISVP2,2013-03-07 20:10:00,
2013-03-07 15:15:00,37.8,30.6,30.22,NW,314,3.0,10.0,75,0.00,,,0.03,WUHU216DAVISVP2,2013-03-07 20:15:00,
2013-03-07 15:20:00,37.9,30.4,30.22,NNW,345,4.0,10.0,74,0.00,,,0.03,WUHU216DAVISVP2,2013-03-07 20:20:00,
2013-03-07 15:25:00,38.0,30.1,30.22,WNW,285,3.0,10.0,73,0.00,,,0.03,WUHU216DAVISVP2,2013-03-07 20:25:00,
2013-03-07 15:30:00,38.3,30.1,30.22,NW,305,3.0,10.0,72,0.00,,,0.03,WUHU216DAVISVP2,2013-03-07 20:30:00,
2013-03-07 15:35:00,38.5,29.6,30.22,NNW,345,11.0,13.0,70,0.00,,,0.03,WUHU216DAVISVP2,2013-03-07 20:35:00,
2013-03-07 15:40:00,38.6,29.4,30.22,WNW,290,6.0,14.0,69,0.00,,,0.03,WUHU216DAVISVP2,2013-03-07 20:40:00,
2013-03-07 15:45:00,38.7,29.1,30.22,NNW,330,7.0,14.0,68,0.00,,,0.03,WUHU216DAVISVP2,2013-03-07 20:45:00,
2013-03-07 15:50:00,38.9,30.0,30.22,NNW,343,3.0,14.0,70,0.00,,,0.03,WUHU216DAVISVP2,2013-03-07 20:50:00,
2013-03-07 15:55:00,39.0,29.4,30.21,NNW,338,5.0,14.0,68,0.00,,,0.03,WUHU216DAVISVP2,2013-03-07 20:55:00,
2013-03-07 16:00:00,39.0,29.8,30.22,NNW,344,4.0,16.0,69,0.00,,,0.03,WUHU216DAVISVP2,2013-03-07 21:00:00,
2013-03-07 16:05:00,39.1,30.2,30.22,NW,311,4.0,16.0,70,0.00,,,0.03,WUHU216DAVISVP2,2013-03-07 21:05:00,
2013-03-07 16:10:00,39.2,30.3,30.22,NW,324,5.0,16.0,70,0.00,,,0.03,WUHU216DAVISVP2,2013-03-07 21:10:00,
2013-03-07 16:15:00,39.3,29.7,30.22,NW,319,5.0,16.0,68,0.00,,,0.03,WUHU216DAVISVP2,2013-03-07 21:15:00,
2013-03-07 16:20:00,39.2,29.6,30.22,NNW,337,6.0,11.0,68,0.00,,,0.03,WUHU216DAVISVP2,2013-03-07 21:20:00,
2013-03-07 16:25:00,39.4,30.5,30.22,NW,312,3.0,11.0,70,0.00,,,0.03,WUHU216DAVISVP2,2013-03-07 21:25:00,
2013-03-07 16:30:00,39.6,29.6,30.22,North,354,3.0,11.0,67,0.00,,,0.03,WUHU216DAVISVP2,2013-03-07 21:30:00,
2013-03-07 16:35:00,39.4,29.8,30.22,NW,326,3.0,11.0,68,0.00,,,0.03,WUHU216DAVISVP2,2013-03-07 21:35:00,
2013-03-07 16:40:00,39.4,29.7,30.22,WNW,284,0.0,10.0,68,0.00,,,0.03,WUHU216DAVISVP2,2013-03-07 21:40:00,
2013-03-07 16:45:00,39.3,30.1,30.22,NW,312,3.0,10.0,69,0.00,,,0.03,WUHU216DAVISVP2,2013-03-07 21:45:00,
2013-03-07 16:50:00,39.1,29.9,30.23,WSW,240,6.0,10.0,69,0.00,,,0.03,WUHU216DAVISVP2,2013-03-07 21:50:00,
2013-03-07 16:55:00,38.9,29.9,30.23,WNW,288,2.0,10.0,70,0.00,,,0.03,WUHU216DAVISVP2,2013-03-07 21:55:00,
2013-03-07 17:00:00,38.7,29.8,30.23,NNW,337,3.0,10.0,70,0.00,,,0.03,WUHU216DAVISVP2,2013-03-07 22:00:00,
2013-03-07 17:05:00,38.4,29.8,30.23,NNW,328,4.0,10.0,71,0.00,,,0.03,WUHU216DAVISVP2,2013-03-07 22:05:00,
2013-03-07 17:10:00,38.2,30.0,30.23,North,354,4.0,10.0,72,0.00,,,0.03,WUHU216DAVISVP2,2013-03-07 22:10:00,
2013-03-07 17:15:00,38.0,30.2,30.24,NW,322,6.0,10.0,73,0.00,,,0.03,WUHU216DAVISVP2,2013-03-07 22:15:00,
2013-03-07 17:20:00,37.8,30.3,30.24,NW,318,4.0,10.0,74,0.00,,,0.03,WUHU216DAVISVP2,2013-03-07 22:20:00,
2013-03-07 17:25:00,37.7,30.2,30.24,NNW,344,4.0,10.0,74,0.00,,,0.03,WUHU216DAVISVP2,2013-03-07 22:25:00,
2013-03-07 17:30:00,37.7,30.2,30.24,North,359,3.0,10.0,74,0.00,,,0.03,WUHU216DAVISVP2,2013-03-07 22:30:00,
2013-03-07 17:35:00,37.7,30.2,30.24,NNW,333,6.0,8.0,74,0.00,,,0.03,WUHU216DAVISVP2,2013-03-07 22:35:00,
2013-03-07 17:40:00,37.7,30.2,30.24,WNW,303,3.0,9.0,74,0.00,,,0.03,WUHU216DAVISVP2,2013-03-07 22:40:00,
2013-03-07 17:45:00,37.7,30.2,30.24,NW,324,2.0,9.0,74,0.00,,,0.03,WUHU216DAVISVP2,2013-03-07 22:45:00,
2013-03-07 17:50:00,37.7,30.2,30.24,WNW,303,8.0,9.0,74,0.00,,,0.03,WUHU216DAVISVP2,2013-03-07 22:50:00,
2013-03-07 17:55:00,37.7,30.2,30.24,NW,314,3.0,9.0,74,0.00,,,0.03,WUHU216DAVISVP2,2013-03-07 22:55:00,
2013-03-07 18:00:00,37.6,30.4,30.24,WNW,299,3.0,8.0,75,0.00,,,0.03,WUHU216DAVISVP2,2013-03-07 23:00:00,
2013-03-07 18:05:00,37.4,30.6,30.25,NNW,334,3.0,9.0,76,0.00,,,0.03,WUHU216DAVISVP2,2013-03-07 23:05:00,
2013-03-07 18:10:00,37.3,30.8,30.24,NW,314,2.0,9.0,77,0.00,,,0.03,WUHU216DAVISVP2,2013-03-07 23:10:00,
2013-03-07 18:15:00,37.0,30.8,30.25,WNW,297,2.0,9.0,78,0.00,,,0.03,WUHU216DAVISVP2,2013-03-07 23:15:00,
2013-03-07 18:20:00,36.9,31.3,30.25,NW,312,2.0,9.0,80,0.00,,,0.03,WUHU216DAVISVP2,2013-03-07 23:20:00,
2013-03-07 18:25:00,36.8,31.2,30.25,WNW,295,1.0,9.0,80,0.00,,,0.03,WUHU216DAVISVP2,2013-03-07 23:25:00,
2013-03-07 18:30:00,36.7,31.1,30.25,WNW,295,1.0,9.0,80,0.00,,,0.03,WUHU216DAVISVP2,2013-03-07 23:30:00,
2013-03-07 18:35:00,36.7,31.1,30.25,NW,313,3.0,9.0,80,0.00,,,0.03,WUHU216DAVISVP2,2013-03-07 23:35:00,
2013-03-07 18:40:00,36.7,31.1,30.26,WNW,287,0.0,9.0,80,0.00,,,0.03,WUHU216DAVISVP2,2013-03-07 23:40:00,
2013-03-07 18:45:00,36.7,31.1,30.26,West,259,8.0,8.0,80,0.00,,,0.03,WUHU216DAVISVP2,2013-03-07 23:45:00,
2013-03-07 18:50:00,36.7,30.8,30.26,NNW,328,0.0,10.0,79,0.00,,,0.03,WUHU216DAVISVP2,2013-03-07 23:50:00,
2013-03-07 18:55:00,36.7,30.8,30.26,NW,321,2.0,10.0,79,0.00,,,0.03,WUHU216DAVISVP2,2013-03-07 23:55:00,
2013-03-07 19:00:00,36.8,30.9,30.26,WNW,301,0.0,10.0,79,0.00,,,0.03,WUHU216DAVISVP2,2013-03-08 00:00:00,
2013-03-07 19:05:00,36.8,30.9,30.26,NNW,336,6.0,9.0,79,0.00,,,0.03,WUHU216DAVISVP2,2013-03-08 00:05:00,
2013-03-07 19:10:00,36.8,30.6,30.26,WNW,290,4.0,9.0,78,0.00,,,0.03,WUHU216DAVISVP2,2013-03-08 00:10:00,
2013-03-07 19:15:00,36.8,30.3,30.26,WNW,291,4.0,11.0,77,0.00,,,0.03,WUHU216DAVISVP2,2013-03-08 00:15:00,
2013-03-07 19:20:00,36.7,30.5,30.26,WNW,299,2.0,13.0,78,0.00,,,0.03,WUHU216DAVISVP2,2013-03-08 00:20:00,
2013-03-07 19:25:00,36.7,29.9,30.27,NW,316,4.0,13.0,76,0.00,,,0.03,WUHU216DAVISVP2,2013-03-08 00:25:00,
2013-03-07 19:30:00,36.7,30.2,30.27,WNW,300,4.0,13.0,77,0.00,,,0.03,WUHU216DAVISVP2,2013-03-08 00:30:00,
2013-03-07 19:35:00,36.6,30.1,30.27,NW,307,3.0,13.0,77,0.00,,,0.03,WUHU216DAVISVP2,2013-03-08 00:35:00,
2013-03-07 19:40:00,36.6,30.1,30.26,WNW,288,4.0,11.0,77,0.00,,,0.03,WUHU216DAVISVP2,2013-03-08 00:40:00,
2013-03-07 19:45:00,36.5,30.3,30.26,NNW,336,3.0,9.0,78,0.00,,,0.03,WUHU216DAVISVP2,2013-03-08 00:45:00,
2013-03-07 19:50:00,36.5,30.3,30.27,WNW,285,4.0,9.0,78,0.00,,,0.03,WUHU216DAVISVP2,2013-03-08 00:50:00,
2013-03-07 19:55:00,36.4,30.5,30.26,NW,319,4.0,9.0,79,0.00,,,0.03,WUHU216DAVISVP2,2013-03-08 00:55:00,
2013-03-07 20:00:00,36.3,30.4,30.26,NW,315,4.0,9.0,79,0.00,,,0.03,WUHU216DAVISVP2,2013-03-08 01:00:00,
2013-03-07 20:06:00,36.3,30.7,30.26,North,349,3.0,9.0,80,0.00,,,0.03,WUHU216DAVISVP2,2013-03-08 01:06:00,
2013-03-07 20:11:00,36.2,30.3,30.26,NW,325,5.0,9.0,79,0.00,,,0.03,WUHU216DAVISVP2,2013-03-08 01:11:00,
2013-03-07 20:16:00,36.1,30.2,30.26,NW,326,5.0,9.0,79,0.00,,,0.03,WUHU216DAVISVP2,2013-03-08 01:16:00,
2013-03-07 20:21:00,36.1,30.2,30.26,WNW,284,2.0,9.0,79,0.00,,,0.03,WUHU216DAVISVP2,2013-03-08 01:21:00,
2013-03-07 20:26:00,36.1,30.5,30.27,NW,325,5.0,10.0,80,0.00,,,0.03,WUHU216DAVISVP2,2013-03-08 01:26:00,
2013-03-07 20:31:00,36.0,30.4,30.27,West,274,3.0,10.0,80,0.00,,,0.03,WUHU216DAVISVP2,2013-03-08 01:31:00,
2013-03-07 20:36:00,36.0,30.4,30.27,WNW,297,3.0,10.0,80,0.00,,,0.03,WUHU216DAVISVP2,2013-03-08 01:36:00,
2013-03-07 20:41:00,36.0,30.4,30.27,WNW,297,2.0,10.0,80,0.00,,,0.03,WUHU216DAVISVP2,2013-03-08 01:41:00,
2013-03-07 20:46:00,36.0,30.4,30.27,NNW,327,2.0,9.0,80,0.00,,,0.03,WUHU216DAVISVP2,2013-03-08 01:46:00,
2013-03-07 20:51:00,35.9,30.6,30.28,NW,318,2.0,9.0,81,0.00,,,0.03,WUHU216DAVISVP2,2013-03-08 01:51:00,
2013-03-07 20:56:00,35.8,30.8,30.28,NNW,329,2.0,8.0,82,0.00,,,0.03,WUHU216DAVISVP2,2013-03-08 01:56:00,
2013-03-07 21:01:00,35.6,30.6,30.28,NW,323,6.0,9.0,82,0.00,,,0.03,WUHU216DAVISVP2,2013-03-08 02:01:00,
2013-03-07 21:06:00,35.5,30.8,30.27,NNW,327,3.0,11.0,83,0.00,,,0.03,WUHU216DAVISVP2,2013-03-08 02:06:00,
2013-03-07 21:11:00,35.3,30.9,30.27,NW,314,9.0,11.0,84,0.00,,,0.03,WUHU216DAVISVP2,2013-03-08 02:11:00,
2013-03-07 21:16:00,35.0,30.9,30.28,WNW,297,3.0,11.0,85,0.00,,,0.03,WUHU216DAVISVP2,2013-03-08 02:16:00,
2013-03-07 21:21:00,34.8,31.0,30.27,NNW,342,4.0,9.0,86,0.00,,,0.03,WUHU216DAVISVP2,2013-03-08 02:21:00,
2013-03-07 21:26:00,34.7,31.2,30.27,NW,309,3.0,9.0,87,0.00,,,0.03,WUHU216DAVISVP2,2013-03-08 02:26:00,
2013-03-07 21:31:00,34.6,31.1,30.27,NW,326,6.0,9.0,87,0.00,,,0.03,WUHU216DAVISVP2,2013-03-08 02:31:00,
2013-03-07 21:36:00,34.4,31.2,30.27,WNW,295,5.0,8.0,88,0.00,,,0.03,WUHU216DAVISVP2,2013-03-08 02:36:00,
2013-03-07 21:41:00,34.4,31.2,30.27,WNW,303,3.0,6.0,88,0.00,,,0.03,WUHU216DAVISVP2,2013-03-08 02:41:00,
2013-03-07 21:46:00,34.3,31.1,30.27,NW,310,1.0,6.0,88,0.00,,,0.03,WUHU216DAVISVP2,2013-03-08 02:46:00,
2013-03-07 21:51:00,34.3,31.1,30.28,NW,319,5.0,8.0,88,0.00,,,0.03,WUHU216DAVISVP2,2013-03-08 02:51:00,
2013-03-07 21:56:00,34.2,31.0,30.28,NNW,342,3.0,8.0,88,0.00,,,0.03,WUHU216DAVISVP2,2013-03-08 02:56:00,
2013-03-07 22:01:00,34.2,31.3,30.28,NNW,341,2.0,8.0,89,0.00,,,0.03,WUHU216DAVISVP2,2013-03-08 03:01:00,
2013-03-07 22:06:00,34.2,31.3,30.28,NNW,340,3.0,8.0,89,0.00,,,0.03,WUHU216DAVISVP2,2013-03-08 03:06:00,
2013-03-07 22:11:00,34.2,31.3,30.28,NNW,343,4.0,7.0,89,0.00,,,0.03,WUHU216DAVISVP2,2013-03-08 03:11:00,
2013-03-07 22:16:00,34.1,31.2,30.28,NW,325,3.0,7.0,89,0.00,,,0.03,WUHU216DAVISVP2,2013-03-08 03:16:00,
2013-03-07 22:21:00,34.1,31.2,30.28,NW,306,3.0,7.0,89,0.00,,,0.03,WUHU216DAVISVP2,2013-03-08 03:21:00,
2013-03-07 22:26:00,34.1,30.9,30.28,NNW,345,2.0,8.0,88,0.00,,,0.03,WUHU216DAVISVP2,2013-03-08 03:26:00,
2013-03-07 22:31:00,34.1,30.9,30.27,WNW,300,1.0,8.0,88,0.00,,,0.03,WUHU216DAVISVP2,2013-03-08 03:31:00,
2013-03-07 22:36:00,34.1,31.2,30.28,NNW,338,0.0,8.0,89,0.00,,,0.03,WUHU216DAVISVP2,2013-03-08 03:36:00,
2013-03-07 22:41:00,34.0,30.8,30.28,NNW,339,6.0,8.0,88,0.00,,,0.03,WUHU216DAVISVP2,2013-03-08 03:41:00,
2013-03-07 22:46:00,34.0,30.8,30.28,NW,305,2.0,8.0,88,0.00,,,0.03,WUHU216DAVISVP2,2013-03-08 03:46:00,
2013-03-07 22:51:00,34.0,30.8,30.28,WNW,291,1.0,8.0,88,0.00,,,0.03,WUHU216DAVISVP2,2013-03-08 03:51:00,
2013-03-07 22:56:00,34.0,30.5,30.28,NW,324,6.0,8.0,87,0.00,,,0.03,WUHU216DAVISVP2,2013-03-08 03:56:00,
2013-03-07 23:01:00,34.0,30.3,30.28,NW,314,1.0,8.0,86,0.00,,,0.03,WUHU216DAVISVP2,2013-03-08 04:01:00,
2013-03-07 23:06:00,34.1,30.1,30.28,NW,309,6.0,8.0,85,0.00,,,0.03,WUHU216DAVISVP2,2013-03-08 04:06:00,
2013-03-07 23:11:00,34.1,30.0,30.27,NW,308,1.0,8.0,85,0.00,,,0.03,WUHU216DAVISVP2,2013-03-08 04:11:00,
2013-03-07 23:16:00,34.1,30.0,30.27,NNW,330,5.0,8.0,85,0.00,,,0.03,WUHU216DAVISVP2,2013-03-08 04:16:00,
2013-03-07 23:21:00,34.1,30.0,30.27,NW,321,4.0,8.0,85,0.00,,,0.03,WUHU216DAVISVP2,2013-03-08 04:21:00,
2013-03-07 23:26:00,34.1,29.8,30.27,NNW,348,9.0,11.0,84,0.00,,,0.03,WUHU216DAVISVP2,2013-03-08 04:26:00,
2013-03-07 23:31:00,34.1,29.8,30.27,NNW,345,1.0,11.0,84,0.00,,,0.03,WUHU216DAVISVP2,2013-03-08 04:31:00,
2013-03-07 23:36:00,34.0,29.7,30.28,North,354,9.0,11.0,84,0.00,,,0.03,WUHU216DAVISVP2,2013-03-08 04:36:00,
2013-03-07 23:41:00,33.9,29.3,30.28,NW,322,5.0,12.0,83,0.00,,,0.03,WUHU216DAVISVP2,2013-03-08 04:41:00,
2013-03-07 23:46:00,33.9,29.3,30.28,North,8,5.0,12.0,83,0.00,,,0.03,WUHU216DAVISVP2,2013-03-08 04:46:00,
2013-03-07 23:51:00,33.9,29.3,30.27,North,354,6.0,12.0,83,0.00,,,0.03,WUHU216DAVISVP2,2013-03-08 04:51:00,
2013-03-07 23:56:00,33.7,29.1,30.28,NNE,14,10.0,16.0,83,0.00,,,0.03,WUHU216DAVISVP2,2013-03-08 04:56:00,